AAY963 KCHA-KPIE

Flight info

Callsign AAY963
Flight time 1h 15m
Altitude 37000
Route GQO HONID BANGZ2
Aircraft A319/M-SDE3FGHIRWY/LB1

Departure

Time 2026-04-20 21:31
Airport Chattanooga Metropolitan Airport (Lovell Field) (KCHA)

Arrival

Time 2026-04-20 22:46
Airport St. Petersburg Clearwater International Airport (KPIE)
Time Latitude Longitude Altitude Speed Heading
2026-04-20 21:10 35.03781 -85.19866 691 ft 0 kts 116°
2026-04-20 21:22 35.03789 -85.19886 691 ft 4 kts 116°
2026-04-20 21:22 35.03799 -85.19910 691 ft 4 kts 137°
2026-04-20 21:22 35.03822 -85.19920 682 ft 4 kts 188°
2026-04-20 21:23 35.03845 -85.19914 691 ft 1 kts 197°
2026-04-20 21:23 35.03845 -85.19913 691 ft 0 kts 197°
2026-04-20 21:25 35.03838 -85.19916 691 ft 3 kts 197°
2026-04-20 21:26 35.03803 -85.19929 686 ft 8 kts 196°
2026-04-20 21:26 35.03737 -85.19952 691 ft 12 kts 196°
2026-04-20 21:26 35.03642 -85.19986 691 ft 16 kts 197°
2026-04-20 21:26 35.03525 -85.20029 686 ft 19 kts 197°
2026-04-20 21:27 35.03406 -85.20074 685 ft 18 kts 197°
2026-04-20 21:27 35.03296 -85.20115 685 ft 15 kts 201°
2026-04-20 21:27 35.03229 -85.20209 686 ft 15 kts 243°
2026-04-20 21:27 35.03147 -85.20291 691 ft 16 kts 198°
2026-04-20 21:28 35.03041 -85.20329 691 ft 16 kts 196°
2026-04-20 21:28 35.02931 -85.20369 688 ft 17 kts 197°
2026-04-20 21:28 35.02819 -85.20410 689 ft 17 kts 196°
2026-04-20 21:28 35.02703 -85.20452 687 ft 18 kts 196°
2026-04-20 21:29 35.02584 -85.20495 685 ft 18 kts 197°
2026-04-20 21:29 35.02461 -85.20540 688 ft 19 kts 197°
2026-04-20 21:29 35.02335 -85.20586 687 ft 19 kts 197°
2026-04-20 21:29 35.02260 -85.20625 689 ft 9 kts 228°
2026-04-20 21:30 35.02265 -85.20695 692 ft 8 kts 289°
2026-04-20 21:30 35.02284 -85.20736 687 ft 4 kts 330°
2026-04-20 21:30 35.02318 -85.20731 690 ft 6 kts 18°
2026-04-20 21:30 35.02375 -85.20709 686 ft 16 kts 17°
2026-04-20 21:31 35.02742 -85.20577 687 ft 92 kts 16°
2026-04-20 21:31 35.03570 -85.20280 694 ft 153 kts 15°
2026-04-20 21:31 35.04598 -85.19902 1321 ft 150 kts 15°
2026-04-20 21:31 35.05605 -85.19509 1975 ft 154 kts 14°
2026-04-20 21:32 35.06635 -85.19038 2519 ft 170 kts 30°
2026-04-20 21:32 35.07351 -85.17758 2899 ft 204 kts 73°
2026-04-20 21:32 35.07250 -85.15944 3342 ft 232 kts 107°
2026-04-20 21:32 35.06328 -85.14188 3748 ft 262 kts 136°
2026-04-20 21:33 35.04731 -85.12979 4379 ft 280 kts 161°
2026-04-20 21:33 35.02797 -85.12440 5300 ft 286 kts 172°
2026-04-20 21:33 35.00841 -85.12012 6408 ft 286 kts 172°
2026-04-20 21:33 34.98867 -85.11585 7364 ft 291 kts 172°
2026-04-20 21:34 34.96848 -85.11152 8226 ft 298 kts 172°
2026-04-20 21:34 34.94793 -85.10705 9145 ft 302 kts 172°
2026-04-20 21:34 34.92709 -85.10232 9755 ft 306 kts 172°
2026-04-20 21:34 34.90607 -85.09746 10139 ft 311 kts 172°
2026-04-20 21:35 34.88398 -85.09240 10525 ft 335 kts 172°
2026-04-20 21:35 34.86022 -85.08705 10866 ft 358 kts 172°
2026-04-20 21:35 34.83535 -85.08148 11514 ft 367 kts 172°
2026-04-20 21:35 34.81001 -85.07579 12269 ft 373 kts 172°
2026-04-20 21:36 34.78426 -85.06998 13008 ft 379 kts 173°
2026-04-20 21:36 34.75816 -85.06414 13708 ft 384 kts 173°
2026-04-20 21:36 34.73173 -85.05822 14403 ft 389 kts 173°
2026-04-20 21:36 34.70488 -85.05223 15086 ft 395 kts 173°
2026-04-20 21:37 34.67763 -85.04615 15705 ft 400 kts 173°
2026-04-20 21:37 34.65010 -85.04002 16346 ft 405 kts 174°
2026-04-20 21:37 34.62221 -85.03383 16961 ft 410 kts 174°
2026-04-20 21:37 34.59393 -85.02758 17569 ft 416 kts 174°
2026-04-20 21:38 34.56527 -85.02125 18178 ft 421 kts 174°
2026-04-20 21:38 34.53600 -85.01477 18793 ft 425 kts 174°
2026-04-20 21:38 34.50675 -85.00827 19363 ft 430 kts 174°
2026-04-20 21:38 34.47716 -85.00170 19940 ft 434 kts 174°
2026-04-20 21:39 34.44729 -84.99505 20507 ft 439 kts 174°
2026-04-20 21:39 34.41707 -84.98833 21064 ft 443 kts 174°
2026-04-20 21:39 34.38656 -84.98157 21599 ft 448 kts 174°
2026-04-20 21:39 34.35574 -84.97476 22133 ft 452 kts 174°
2026-04-20 21:40 34.32465 -84.96789 22630 ft 456 kts 174°
2026-04-20 21:40 34.29323 -84.96098 23100 ft 461 kts 174°
2026-04-20 21:40 34.26155 -84.95403 23570 ft 465 kts 174°
2026-04-20 21:40 34.22960 -84.94702 24032 ft 468 kts 174°
2026-04-20 21:41 34.19738 -84.93993 24481 ft 472 kts 174°
2026-04-20 21:41 34.16502 -84.93279 24922 ft 475 kts 175°
2026-04-20 21:41 34.13234 -84.92557 25355 ft 478 kts 175°
2026-04-20 21:41 34.09955 -84.91834 25776 ft 481 kts 175°
2026-04-20 21:42 34.06651 -84.91109 26195 ft 484 kts 175°
2026-04-20 21:42 34.03329 -84.90381 26607 ft 487 kts 175°
2026-04-20 21:42 33.99986 -84.89653 26991 ft 490 kts 175°
2026-04-20 21:42 33.96629 -84.88923 27386 ft 493 kts 176°
2026-04-20 21:43 33.93246 -84.88186 27830 ft 494 kts 176°
2026-04-20 21:43 33.89859 -84.87445 28247 ft 495 kts 176°
2026-04-20 21:43 33.86466 -84.86705 28616 ft 497 kts 177°
2026-04-20 21:43 33.83058 -84.85965 28975 ft 500 kts 177°
2026-04-20 21:44 33.79625 -84.85215 29290 ft 502 kts 177°
2026-04-20 21:44 33.76141 -84.84452 29606 ft 504 kts 177°
2026-04-20 21:44 33.72680 -84.83696 29928 ft 506 kts 177°
2026-04-20 21:44 33.69201 -84.82939 30250 ft 507 kts 178°
2026-04-20 21:45 33.65727 -84.82186 30551 ft 510 kts 178°
2026-04-20 21:45 33.62226 -84.81425 30943 ft 509 kts 178°
2026-04-20 21:45 33.58750 -84.80666 31393 ft 507 kts 178°
2026-04-20 21:45 33.55286 -84.79907 31850 ft 505 kts 178°
2026-04-20 21:46 33.51840 -84.79156 32286 ft 503 kts 179°
2026-04-20 21:46 33.48445 -84.78418 32717 ft 500 kts 179°
2026-04-20 21:46 33.44982 -84.77669 33167 ft 498 kts 179°
2026-04-20 21:46 33.41578 -84.76934 33592 ft 496 kts 180°
2026-04-20 21:47 33.38188 -84.76200 34027 ft 494 kts 180°
2026-04-20 21:47 33.34807 -84.75472 34471 ft 492 kts 180°
2026-04-20 21:47 33.31449 -84.74751 34861 ft 491 kts 180°
2026-04-20 21:47 33.28090 -84.74032 35198 ft 491 kts 181°
2026-04-20 21:48 33.24720 -84.73313 35506 ft 491 kts 181°
2026-04-20 21:48 33.21363 -84.72597 35803 ft 491 kts 180°
2026-04-20 21:48 33.17996 -84.71874 36097 ft 491 kts 180°
2026-04-20 21:48 33.14635 -84.71153 36381 ft 491 kts 181°
2026-04-20 21:49 33.11275 -84.70431 36639 ft 492 kts 181°
2026-04-20 21:49 33.07905 -84.69704 36903 ft 491 kts 181°
2026-04-20 21:49 33.04543 -84.68978 37203 ft 491 kts 181°
2026-04-20 21:50 32.97840 -84.67541 37304 ft 488 kts 181°
2026-04-20 21:50 32.91178 -84.66126 37304 ft 486 kts 181°
2026-04-20 21:51 32.85604 -84.64942 37302 ft 486 kts 181°
2026-04-20 21:51 32.78948 -84.63523 37302 ft 485 kts 181°
2026-04-20 21:52 32.72306 -84.62107 37302 ft 485 kts 181°
2026-04-20 21:52 32.65670 -84.60692 37301 ft 485 kts 181°
2026-04-20 21:53 32.59032 -84.59293 37298 ft 484 kts 182°
2026-04-20 21:53 32.52402 -84.57888 37301 ft 484 kts 182°
2026-04-20 21:54 32.45777 -84.56478 37295 ft 483 kts 182°
2026-04-20 21:54 32.39162 -84.55081 37287 ft 483 kts 182°
2026-04-20 21:55 32.32919 -84.53775 37279 ft 483 kts 182°
2026-04-20 21:55 32.26260 -84.52383 37274 ft 483 kts 182°
2026-04-20 21:56 32.19649 -84.50992 37273 ft 482 kts 182°
2026-04-20 21:56 32.13046 -84.49595 37271 ft 482 kts 182°
2026-04-20 21:57 32.06448 -84.48200 37267 ft 481 kts 182°
2026-04-20 21:57 31.99859 -84.46828 37262 ft 481 kts 182°
2026-04-20 21:58 31.93273 -84.45458 37262 ft 481 kts 182°
2026-04-20 21:58 31.86681 -84.44079 37263 ft 481 kts 182°
2026-04-20 21:59 31.80090 -84.42702 37267 ft 481 kts 182°
2026-04-20 21:59 31.73507 -84.41336 37268 ft 481 kts 182°
2026-04-20 22:00 31.66914 -84.39976 37271 ft 480 kts 183°
2026-04-20 22:00 31.63643 -84.39539 37275 ft 467 kts 191°
2026-04-20 22:00 31.60428 -84.39503 37279 ft 461 kts 193°
2026-04-20 22:01 31.54023 -84.39518 37280 ft 460 kts 193°
2026-04-20 22:01 31.47621 -84.39539 37278 ft 460 kts 193°
2026-04-20 22:02 31.41226 -84.39554 37276 ft 460 kts 193°
2026-04-20 22:02 31.34830 -84.39555 37281 ft 460 kts 193°
2026-04-20 22:03 31.28433 -84.39556 37282 ft 459 kts 193°
2026-04-20 22:03 31.22005 -84.39564 37279 ft 459 kts 193°
2026-04-20 22:04 31.15620 -84.39578 37275 ft 459 kts 193°
2026-04-20 22:04 31.09239 -84.39592 37275 ft 459 kts 193°
2026-04-20 22:05 31.02860 -84.39605 37280 ft 459 kts 193°
2026-04-20 22:05 30.96478 -84.39609 37281 ft 458 kts 193°
2026-04-20 22:06 30.90307 -84.39610 37280 ft 458 kts 193°
2026-04-20 22:06 30.83937 -84.39617 37277 ft 458 kts 192°
2026-04-20 22:07 30.77566 -84.39624 37282 ft 457 kts 192°
2026-04-20 22:07 30.71209 -84.39636 37286 ft 457 kts 192°
2026-04-20 22:08 30.64869 -84.39646 37286 ft 456 kts 192°
2026-04-20 22:08 30.58538 -84.39655 37285 ft 455 kts 192°
2026-04-20 22:09 30.52208 -84.39676 37284 ft 455 kts 193°
2026-04-20 22:09 30.45877 -84.39692 37280 ft 455 kts 192°
2026-04-20 22:10 30.39548 -84.39675 37271 ft 458 kts 189°
2026-04-20 22:10 30.36331 -84.39229 37269 ft 474 kts 179°
2026-04-20 22:10 30.33076 -84.38106 37262 ft 491 kts 168°
2026-04-20 22:10 30.29980 -84.36307 37261 ft 506 kts 157°
2026-04-20 22:11 30.27131 -84.33841 37259 ft 518 kts 147°
2026-04-20 22:11 30.21673 -84.28401 37250 ft 518 kts 147°
2026-04-20 22:12 30.16201 -84.22983 37249 ft 518 kts 148°
2026-04-20 22:12 30.10728 -84.17581 37249 ft 518 kts 148°
2026-04-20 22:13 30.05248 -84.12171 37247 ft 518 kts 148°
2026-04-20 22:13 29.99772 -84.06780 37247 ft 517 kts 148°
2026-04-20 22:14 29.94290 -84.01390 37246 ft 518 kts 148°
2026-04-20 22:14 29.88805 -83.96005 37247 ft 518 kts 148°
2026-04-20 22:15 29.83306 -83.90644 37244 ft 515 kts 151°
2026-04-20 22:15 29.80383 -83.88348 37245 ft 504 kts 159°
2026-04-20 22:15 29.77336 -83.86382 37245 ft 502 kts 161°
2026-04-20 22:16 29.71238 -83.82472 37244 ft 502 kts 160°
2026-04-20 22:16 29.65147 -83.78547 37244 ft 502 kts 160°
2026-04-20 22:17 29.59057 -83.74622 37247 ft 501 kts 160°
2026-04-20 22:17 29.52971 -83.70698 37246 ft 502 kts 160°
2026-04-20 22:18 29.46838 -83.66757 37251 ft 502 kts 160°
2026-04-20 22:18 29.40743 -83.62856 37247 ft 501 kts 160°
2026-04-20 22:18 29.37696 -83.60908 36974 ft 504 kts 160°
2026-04-20 22:19 29.34595 -83.59121 36422 ft 492 kts 168°
2026-04-20 22:19 29.31413 -83.57835 35875 ft 479 kts 174°
2026-04-20 22:19 29.28258 -83.56780 35331 ft 479 kts 174°
2026-04-20 22:19 29.25009 -83.55691 34774 ft 481 kts 174°
2026-04-20 22:20 29.21794 -83.54605 34225 ft 482 kts 174°
2026-04-20 22:20 29.18579 -83.53513 33677 ft 482 kts 174°
2026-04-20 22:20 29.15360 -83.52418 33124 ft 482 kts 174°
2026-04-20 22:20 29.12143 -83.51327 32568 ft 483 kts 173°
2026-04-20 22:21 29.08907 -83.50236 32016 ft 486 kts 173°
2026-04-20 22:21 29.05657 -83.49143 31465 ft 488 kts 173°
2026-04-20 22:21 29.02399 -83.48046 30914 ft 490 kts 172°
2026-04-20 22:21 28.99125 -83.46943 30362 ft 492 kts 172°
2026-04-20 22:22 28.95881 -83.45544 29809 ft 503 kts 163°
2026-04-20 22:22 28.92718 -83.43886 29258 ft 497 kts 163°
2026-04-20 22:22 28.89606 -83.42252 28708 ft 488 kts 163°
2026-04-20 22:22 28.86539 -83.40654 28153 ft 481 kts 163°
2026-04-20 22:23 28.83516 -83.39091 27577 ft 475 kts 163°
2026-04-20 22:23 28.80708 -83.37648 26990 ft 470 kts 163°
2026-04-20 22:23 28.78697 -83.36616 26568 ft 467 kts 163°
2026-04-20 22:23 28.75748 -83.35102 25942 ft 463 kts 162°
2026-04-20 22:24 28.72824 -83.33600 25317 ft 458 kts 162°
2026-04-20 22:24 28.69932 -83.32113 24694 ft 454 kts 162°
2026-04-20 22:24 28.67065 -83.30641 24064 ft 450 kts 162°
2026-04-20 22:24 28.64222 -83.29182 23447 ft 446 kts 162°
2026-04-20 22:25 28.61401 -83.27734 22819 ft 444 kts 161°
2026-04-20 22:25 28.58598 -83.26291 22196 ft 442 kts 161°
2026-04-20 22:25 28.55803 -83.24854 21570 ft 440 kts 161°
2026-04-20 22:25 28.53017 -83.23422 20944 ft 438 kts 161°
2026-04-20 22:26 28.50246 -83.22000 20316 ft 436 kts 161°
2026-04-20 22:26 28.47488 -83.20585 19690 ft 434 kts 160°
2026-04-20 22:26 28.44753 -83.19184 19055 ft 433 kts 160°
2026-04-20 22:27 28.39264 -83.16380 17829 ft 429 kts 160°
2026-04-20 22:27 28.36567 -83.15010 17199 ft 421 kts 160°
2026-04-20 22:27 28.33909 -83.13677 16571 ft 414 kts 160°
2026-04-20 22:27 28.31295 -83.12377 15956 ft 406 kts 160°
2026-04-20 22:28 28.28757 -83.11044 15343 ft 400 kts 154°
2026-04-20 22:28 28.26457 -83.09292 14717 ft 397 kts 142°
2026-04-20 22:28 28.24386 -83.07267 14088 ft 390 kts 140°
2026-04-20 22:28 28.22393 -83.05217 13476 ft 384 kts 134°
2026-04-20 22:29 28.20817 -83.02809 12865 ft 377 kts 119°
2026-04-20 22:29 28.19795 -83.00109 12234 ft 370 kts 105°
2026-04-20 22:29 28.19339 -82.97242 11606 ft 361 kts 92°
2026-04-20 22:29 28.19177 -82.94428 10977 ft 355 kts 91°
2026-04-20 22:30 28.19019 -82.91669 10451 ft 346 kts 91°
2026-04-20 22:30 28.18797 -82.88993 9991 ft 337 kts 100°
2026-04-20 22:30 28.17900 -82.86601 9546 ft 330 kts 124°
2026-04-20 22:30 28.16416 -82.84939 9128 ft 324 kts 146°
2026-04-20 22:31 28.14355 -82.84005 8680 ft 318 kts 170°
2026-04-20 22:31 28.12180 -82.83875 8233 ft 311 kts 178°
2026-04-20 22:31 28.10047 -82.83785 7916 ft 301 kts 177°
2026-04-20 22:31 28.08002 -82.83702 7668 ft 288 kts 177°
2026-04-20 22:32 28.06037 -82.83631 7422 ft 277 kts 177°
2026-04-20 22:32 28.04149 -82.83571 7172 ft 266 kts 177°
2026-04-20 22:32 28.02335 -82.83524 6924 ft 256 kts 177°
2026-04-20 22:32 28.00588 -82.83484 6676 ft 248 kts 177°
2026-04-20 22:33 27.98877 -82.83450 6430 ft 245 kts 176°
2026-04-20 22:33 27.97174 -82.83427 6187 ft 244 kts 177°
2026-04-20 22:33 27.95480 -82.83413 5934 ft 244 kts 177°
2026-04-20 22:33 27.93791 -82.83403 5681 ft 242 kts 177°
2026-04-20 22:34 27.92111 -82.83395 5436 ft 242 kts 177°
2026-04-20 22:34 27.90428 -82.83392 5187 ft 242 kts 177°
2026-04-20 22:34 27.88750 -82.83385 4934 ft 240 kts 177°
2026-04-20 22:34 27.87076 -82.83382 4682 ft 241 kts 177°
2026-04-20 22:35 27.85404 -82.83382 4440 ft 240 kts 177°
2026-04-20 22:35 27.83736 -82.83381 4189 ft 240 kts 177°
2026-04-20 22:35 27.82070 -82.83383 3936 ft 239 kts 177°
2026-04-20 22:35 27.80407 -82.83385 3687 ft 239 kts 176°
2026-04-20 22:36 27.78755 -82.83333 3445 ft 235 kts 174°
2026-04-20 22:36 27.77134 -82.83258 3191 ft 232 kts 173°
2026-04-20 22:36 27.75536 -82.83185 2933 ft 227 kts 174°
2026-04-20 22:36 27.73968 -82.83117 2690 ft 224 kts 174°
2026-04-20 22:37 27.72406 -82.83058 2482 ft 219 kts 174°
2026-04-20 22:37 27.70903 -82.83005 2305 ft 213 kts 174°
2026-04-20 22:37 27.69442 -82.82954 2131 ft 206 kts 174°
2026-04-20 22:37 27.68038 -82.82899 2037 ft 200 kts 172°
2026-04-20 22:38 27.66805 -82.82390 1999 ft 189 kts 133°
2026-04-20 22:38 27.66119 -82.81193 2005 ft 179 kts 101°
2026-04-20 22:38 27.66094 -82.79834 1998 ft 173 kts 73°
2026-04-20 22:38 27.66447 -82.78539 1994 ft 172 kts 71°
2026-04-20 22:39 27.66797 -82.77240 1995 ft 173 kts 71°
2026-04-20 22:39 27.67144 -82.75948 1993 ft 172 kts 71°
2026-04-20 22:39 27.67490 -82.74658 1991 ft 171 kts 71°
2026-04-20 22:39 27.67832 -82.73378 1983 ft 167 kts 71°
2026-04-20 22:40 27.68160 -82.72141 1986 ft 163 kts 71°
2026-04-20 22:40 27.68486 -82.70919 2028 ft 162 kts 71°
2026-04-20 22:40 27.68812 -82.69706 2001 ft 158 kts 71°
2026-04-20 22:40 27.69121 -82.68543 1989 ft 152 kts 71°
2026-04-20 22:41 27.69474 -82.67428 1980 ft 151 kts 62°
2026-04-20 22:41 27.70119 -82.66503 1988 ft 151 kts 43°
2026-04-20 22:41 27.71019 -82.65880 1994 ft 153 kts 24°
2026-04-20 22:41 27.72072 -82.65638 1991 ft 157 kts
2026-04-20 22:42 27.73171 -82.65779 1994 ft 161 kts 356°
2026-04-20 22:42 27.74272 -82.65969 1990 ft 160 kts 356°
2026-04-20 22:42 27.75369 -82.66159 1989 ft 160 kts 356°
2026-04-20 22:42 27.76467 -82.66345 1992 ft 160 kts 357°
2026-04-20 22:43 27.77565 -82.66534 1990 ft 160 kts 357°
2026-04-20 22:43 27.78663 -82.66718 1988 ft 160 kts 357°
2026-04-20 22:43 27.79767 -82.66905 1981 ft 161 kts 356°
2026-04-20 22:43 27.80876 -82.67089 1802 ft 159 kts 356°
2026-04-20 22:44 27.81964 -82.67267 1600 ft 157 kts 357°
2026-04-20 22:44 27.83030 -82.67434 1371 ft 151 kts 357°
2026-04-20 22:44 27.84026 -82.67618 1225 ft 140 kts 355°
2026-04-20 22:44 27.84970 -82.67795 1006 ft 136 kts 355°
2026-04-20 22:45 27.85905 -82.67943 804 ft 136 kts 355°
2026-04-20 22:45 27.86852 -82.68114 637 ft 134 kts 354°
2026-04-20 22:45 27.87742 -82.68290 451 ft 130 kts 356°
2026-04-20 22:45 27.88670 -82.68434 296 ft 134 kts 357°
2026-04-20 22:46 27.89611 -82.68595 114 ft 137 kts 353°
2026-04-20 22:46 27.90516 -82.68750 24 ft 120 kts 352°
2026-04-20 22:46 27.91168 -82.68866 21 ft 70 kts 351°
2026-04-20 22:46 27.91423 -82.68911 23 ft 22 kts 351°
2026-04-20 22:47 27.91545 -82.68937 21 ft 10 kts 328°
2026-04-20 22:47 27.91552 -82.69012 22 ft 8 kts 262°
2026-04-20 22:47 27.91538 -82.69069 25 ft 7 kts 232°
2026-04-20 22:47 27.91491 -82.69082 26 ft 7 kts 179°
2026-04-20 22:48 27.91437 -82.69071 25 ft 9 kts 171°
2026-04-20 22:48 27.91368 -82.69058 24 ft 11 kts 170°
2026-04-20 22:48 27.91285 -82.69044 24 ft 13 kts 171°
2026-04-20 22:48 27.91187 -82.69027 24 ft 15 kts 172°
2026-04-20 22:49 27.91074 -82.69008 25 ft 17 kts 172°
2026-04-20 22:49 27.90955 -82.68986 24 ft 16 kts 171°
2026-04-20 22:49 27.90856 -82.68974 24 ft 11 kts 189°
2026-04-20 22:49 27.90834 -82.69020 24 ft 5 kts 276°
2026-04-20 22:50 27.90834 -82.69051 24 ft 3 kts 259°
2026-04-20 22:50 27.90808 -82.69067 24 ft 5 kts 182°
2026-04-20 22:50 27.90783 -82.69065 24 ft 3 kts 177°
2026-04-20 22:50 27.90765 -82.69065 24 ft 1 kts 178°
2026-04-20 22:51 27.90760 -82.69065 24 ft 0 kts 178°